| time (UTC) | temp F | wind direction | speed knots | gust knots | rain 1hr in | rain 24hr in | rain mn in | humidity % | barometer mb |
| 20260505224020 | 84 | 98 | 2.6 | 7.0 | 0.00 | 0.00 | 0.00 | 46 | 1013.5 |
| 20260505223522 | 85 | 115 | 3.5 | 8.7 | 0.00 | 0.00 | 0.00 | 45 | 1013.5 |
| 20260505223039 | 85 | 67 | 3.5 | 8.7 | 0.00 | 0.00 | 0.00 | 45 | 1013.5 |
| 20260505222518 | 85 | 90 | 4.3 | 8.7 | 0.00 | 0.00 | 0.00 | 45 | 1013.5 |
| 20260505222017 | 86 | 57 | 1.7 | 5.2 | 0.00 | 0.00 | 0.00 | 44 | 1013.5 |
| 20260505221544 | 86 | 85 | 1.7 | 7.0 | 0.00 | 0.00 | 0.00 | 44 | 1013.6 |
| 20260505221020 | 85 | 107 | 3.5 | 7.0 | 0.00 | 0.00 | 0.00 | 45 | 1013.6 |
| 20260505220516 | 85 | 108 | 4.3 | 7.0 | 0.00 | 0.00 | 0.00 | 43 | 1013.6 |
| 20260505220035 | 85 | 85 | 2.6 | 6.1 | 0.00 | 0.00 | 0.00 | 46 | 1013.6 |
| 20260505215521 | 84 | 32 | 3.5 | 6.1 | 0.00 | 0.00 | 0.00 | 45 | 1013.6 |
| 20260505215017 | 84 | 38 | 2.6 | 6.1 | 0.00 | 0.00 | 0.00 | 45 | 1013.6 |
| 20260505214544 | 84 | 51 | 1.7 | 7.8 | 0.00 | 0.00 | 0.00 | 47 | 1013.6 |
| 20260505214022 | 84 | 81 | 2.6 | 7.8 | 0.00 | 0.00 | 0.00 | 46 | 1013.7 |
| 20260505213520 | 84 | 71 | 3.5 | 7.8 | 0.00 | 0.00 | 0.00 | 46 | 1013.6 |
| 20260505213037 | 84 | 35 | 4.3 | 7.8 | 0.00 | 0.00 | 0.00 | 45 | 1013.7 |
| 20260505212521 | 84 | 49 | 2.6 | 7.8 | 0.00 | 0.00 | 0.00 | 46 | 1013.6 |
| 20260505212020 | 84 | 69 | 3.5 | 8.7 | 0.00 | 0.00 | 0.00 | 45 | 1013.6 |
| 20260505211557 | 85 | 74 | 3.5 | 8.7 | 0.00 | 0.00 | 0.00 | 44 | 1013.6 |
| 20260505211016 | 85 | 46 | 2.6 | 8.7 | 0.00 | 0.00 | 0.00 | 44 | 1013.5 |
| 20260505210516 | 87 | 72 | 4.3 | 8.7 | 0.00 | 0.00 | 0.00 | 42 | 1013.4 |
| 20260505210041 | 89 | 84 | 2.6 | 6.1 | 0.00 | 0.00 | 0.00 | 38 | 1013.4 |
| 20260505205526 | 89 | 88 | 1.7 | 5.2 | 0.00 | 0.00 | 0.00 | 40 | 1013.4 |
| 20260505205024 | 87 | 250 | 0.9 | 4.3 | 0.00 | 0.00 | 0.00 | 43 | 1013.4 |
| 20260505204554 | 87 | 145 | 0.0 | 7.0 | 0.00 | 0.00 | 0.00 | 40 | 1013.5 |
| 20260505204024 | 86 | 108 | 1.7 | 8.7 | 0.00 | 0.00 | 0.00 | 41 | 1013.5 |
| 20260505203520 | 87 | 87 | 3.5 | 8.7 | 0.00 | 0.00 | 0.00 | 41 | 1013.6 |
| 20260505203041 | 88 | 128 | 0.9 | 7.0 | 0.00 | 0.00 | 0.00 | 41 | 1013.5 |
| 20260505202521 | 88 | 91 | 2.6 | 7.8 | 0.00 | 0.00 | 0.00 | 41 | 1013.5 |
| 20260505202024 | 87 | 144 | 3.5 | 9.6 | 0.00 | 0.00 | 0.00 | 42 | 1013.7 |
| 20260505201541 | 86 | 57 | 3.5 | 9.6 | 0.00 | 0.00 | 0.00 | 43 | 1013.7 |
| 20260505201020 | 86 | 89 | 2.6 | 9.6 | 0.00 | 0.00 | 0.00 | 44 | 1013.7 |
| 20260505200527 | 87 | 112 | 5.2 | 8.7 | 0.00 | 0.00 | 0.00 | 43 | 1013.8 |
| 20260505200038 | 87 | 0 | 1.7 | 7.8 | 0.00 | 0.00 | 0.00 | 42 | 1013.9 |
| 20260505195516 | 86 | 52 | 3.5 | 7.8 | 0.00 | 0.00 | 0.00 | 42 | 1013.9 |
| 20260505195017 | 85 | 149 | 2.6 | 7.8 | 0.00 | 0.00 | 0.00 | 44 | 1013.9 |
| 20260505194536 | 85 | 96 | 4.3 | 8.7 | 0.00 | 0.00 | 0.00 | 44 | 1014.0 |
| 20260505194021 | 85 | 82 | 3.5 | 8.7 | 0.00 | 0.00 | 0.00 | 45 | 1014.1 |
| 20260505193516 | 84 | 83 | 1.7 | 8.7 | 0.00 | 0.00 | 0.00 | 45 | 1014.2 |
| 20260505193036 | 85 | 263 | 0.0 | 8.7 | 0.00 | 0.00 | 0.00 | 43 | 1014.1 |
| 20260505192518 | 87 | 61 | 4.3 | 8.7 | 0.00 | 0.00 | 0.00 | 42 | 1014.3 |
| 20260505192017 | 87 | 49 | 2.6 | 9.6 | 0.00 | 0.00 | 0.00 | 40 | 1014.3 |
| 20260505191535 | 87 | 112 | 5.2 | 9.6 | 0.00 | 0.00 | 0.00 | 42 | 1014.4 |
| 20260505191016 | 87 | 107 | 0.9 | 7.8 | 0.00 | 0.00 | 0.00 | 42 | 1014.3 |
| 20260505190516 | 87 | 171 | 4.3 | 7.8 | 0.00 | 0.00 | 0.00 | 40 | 1014.4 |
| 20260505190033 | 87 | 84 | 0.0 | 7.8 | 0.00 | 0.00 | 0.00 | 45 | 1014.5 |
| 20260505185516 | 86 | 281 | 1.7 | 8.7 | 0.00 | 0.00 | 0.00 | 43 | 1014.6 |
| 20260505185016 | 87 | 64 | 3.5 | 8.7 | 0.00 | 0.00 | 0.00 | 44 | 1014.6 |
| 20260505184541 | 87 | 11 | 4.3 | 8.7 | 0.00 | 0.00 | 0.00 | 44 | 1014.6 |
| 20260505184016 | 87 | 104 | 3.5 | 7.8 | 0.00 | 0.00 | 0.00 | 43 | 1014.6 |
| 20260505183521 | 87 | 180 | 2.6 | 8.7 | 0.00 | 0.00 | 0.00 | 44 | 1014.7 |
| 20260505183036 | 87 | 115 | 1.7 | 8.7 | 0.00 | 0.00 | 0.00 | 46 | 1014.6 |
| 20260505182516 | 87 | 119 | 1.7 | 7.0 | 0.00 | 0.00 | 0.00 | 45 | 1014.7 |
| 20260505182022 | 87 | 153 | 1.7 | 7.0 | 0.00 | 0.00 | 0.00 | 43 | 1014.8 |
| 20260505181547 | 86 | 121 | 4.3 | 7.0 | 0.00 | 0.00 | 0.00 | 46 | 1015.0 |
| 20260505181016 | 85 | 85 | 1.7 | 7.0 | 0.00 | 0.00 | 0.00 | 46 | 1015.0 |
| 20260505180515 | 87 | 107 | 1.7 | 7.8 | 0.00 | 0.00 | 0.00 | 44 | 1014.9 |
| 20260505180036 | 85 | 109 | 2.6 | 7.8 | 0.00 | 0.00 | 0.00 | 49 | 1015.0 |
| 20260505175516 | 84 | 67 | 1.7 | 7.0 | 0.00 | 0.00 | 0.00 | 50 | 1015.2 |
| 20260505175017 | 82 | 120 | 3.5 | 7.0 | 0.00 | 0.00 | 0.00 | 51 | 1015.1 |
| 20260505174540 | 81 | 28 | 1.7 | 7.0 | 0.00 | 0.00 | 0.00 | 53 | 1015.3 |
| 20260505174016 | 81 | 24 | 1.7 | 8.7 | 0.00 | 0.00 | 0.00 | 51 | 1015.2 |
| 20260505173517 | 82 | 78 | 3.5 | 8.7 | 0.00 | 0.00 | 0.00 | 51 | 1015.4 |
| 20260505173031 | 82 | 25 | 3.5 | 7.8 | 0.00 | 0.00 | 0.00 | 52 | 1015.4 |
| 20260505172519 | 82 | 0 | 1.7 | 10.4 | 0.00 | 0.00 | 0.00 | 53 | 1015.3 |
| 20260505172019 | 82 | 57 | 4.3 | 10.4 | 0.00 | 0.00 | 0.00 | 53 | 1015.4 |
| 20260505171541 | 81 | 61 | 2.6 | 8.7 | 0.00 | 0.00 | 0.00 | 53 | 1015.4 |
| 20260505171017 | 81 | 65 | 2.6 | 9.6 | 0.00 | 0.00 | 0.00 | 53 | 1015.5 |
| 20260505170516 | 81 | 63 | 5.2 | 10.4 | 0.00 | 0.00 | 0.00 | 53 | 1015.6 |
| 20260505170036 | 81 | 55 | 5.2 | 10.4 | 0.00 | 0.00 | 0.00 | 52 | 1015.5 |
| 20260505165517 | 83 | 83 | 5.2 | 11.3 | 0.00 | 0.00 | 0.00 | 52 | 1015.4 |
| 20260505165023 | 83 | 42 | 6.1 | 11.3 | 0.00 | 0.00 | 0.00 | 51 | 1015.5 |
| 20260505164535 | 84 | 34 | 4.3 | 11.3 | 0.00 | 0.00 | 0.00 | 50 | 1015.6 |
| 20260505164021 | 84 | 50 | 6.1 | 10.4 | 0.00 | 0.00 | 0.00 | 50 | 1015.6 |
| 20260505163524 | 83 | 114 | 5.2 | 10.4 | 0.00 | 0.00 | 0.00 | 52 | 1015.7 |
| 20260505163046 | 84 | 85 | 4.3 | 10.4 | 0.00 | 0.00 | 0.00 | 51 | 1015.9 |
| 20260505162520 | 84 | 106 | 5.2 | 10.4 | 0.00 | 0.00 | 0.00 | 50 | 1015.7 |
| 20260505162020 | 83 | 60 | 3.5 | 10.4 | 0.00 | 0.00 | 0.00 | 52 | 1015.8 |
| 20260505161538 | 83 | 81 | 5.2 | 10.4 | 0.00 | 0.00 | 0.00 | 51 | 1015.9 |
| 20260505161021 | 82 | 60 | 2.6 | 9.6 | 0.00 | 0.00 | 0.00 | 54 | 1015.9 |
| 20260505160521 | 84 | 78 | 4.3 | 9.6 | 0.00 | 0.00 | 0.00 | 51 | 1015.9 |
| 20260505153042 | 82 | 120 | 5.2 | 9.6 | 0.00 | 0.00 | 0.00 | 56 | 1015.9 |
| 20260505152517 | 80 | 94 | 5.2 | 9.6 | 0.00 | 0.00 | 0.00 | 57 | 1015.9 |
| 20260505152019 | 82 | 67 | 4.3 | 8.7 | 0.00 | 0.00 | 0.00 | 56 | 1015.8 |
| 20260505151535 | 81 | 103 | 4.3 | 12.2 | 0.00 | 0.00 | 0.00 | 59 | 1015.8 |
| 20260505151022 | 80 | 89 | 7.0 | 12.2 | 0.00 | 0.00 | 0.00 | 59 | 1015.7 |
| 20260505150522 | 81 | 107 | 4.3 | 7.8 | 0.00 | 0.00 | 0.00 | 60 | 1015.7 |
| 20260505140520 | 77 | 111 | 7.0 | 11.3 | 0.00 | 0.00 | 0.00 | 69 | 1015.4 |
| 20260505125016 | 71 | 92 | 4.3 | 7.8 | 0.00 | 0.00 | 0.00 | 80 | 1015.3 |
| 20260505124537 | 71 | 78 | 3.5 | 7.0 | 0.00 | 0.00 | 0.00 | 82 | 1015.2 |
| 20260505124016 | 70 | 89 | 1.7 | 6.1 | 0.00 | 0.00 | 0.00 | 83 | 1015.3 |
| 20260505123516 | 70 | 78 | 2.6 | 5.2 | 0.00 | 0.00 | 0.00 | 84 | 1015.1 |
| 20260505123048 | 69 | 58 | 2.6 | 5.2 | 0.00 | 0.00 | 0.00 | 84 | 1015.1 |
| 20260505122518 | 69 | 55 | 1.7 | 5.2 | 0.00 | 0.00 | 0.00 | 85 | 1015.2 |
| 20260505122018 | 68 | 73 | 1.7 | 5.2 | 0.00 | 0.00 | 0.00 | 86 | 1015.3 |
| 20260505121536 | 67 | 42 | 2.6 | 5.2 | 0.00 | 0.00 | 0.00 | 88 | 1015.2 |
| 20260505121017 | 67 | 100 | 0.9 | 3.5 | 0.00 | 0.00 | 0.00 | 89 | 1015.3 |
| 20260505120516 | 66 | 81 | 1.7 | 3.5 | 0.00 | 0.00 | 0.00 | 92 | 1015.3 |
| 20260505120046 | 65 | 80 | 0.0 | 1.7 | 0.00 | 0.00 | 0.00 | 93 | 1015.3 |
| 20260505115516 | 63 | 0 | 0.0 | 0.0 | 0.00 | 0.00 | 0.00 | 94 | 1015.2 |
| 20260505115016 | 62 | 0 | 0.0 | 0.0 | 0.00 | 0.00 | 0.00 | 95 | 1015.3 |
| 20260505114538 | 62 | 0 | 0.0 | 0.0 | 0.00 | 0.00 | 0.00 | 95 | 1015.1 |
| 20260505114017 | 61 | 0 | 0.0 | 0.0 | 0.00 | 0.00 | 0.00 | 95 | 1015.0 |
| 20260505113516 | 60 | 0 | 0.0 | 0.0 | 0.00 | 0.00 | 0.00 | 95 | 1015.0 |
| 20260505113036 | 60 | 0 | 0.0 | 0.0 | 0.00 | 0.00 | 0.00 | 95 | 1015.0 |
| 20260505112519 | 59 | 0 | 0.0 | 0.0 | 0.00 | 0.00 | 0.00 | 95 | 1015.0 |
| 20260505112016 | 59 | 0 | 0.0 | 0.0 | 0.00 | 0.00 | 0.00 | 94 | 1015.0 |
| 20260505111538 | 59 | 0 | 0.0 | 0.0 | 0.00 | 0.00 | 0.00 | 94 | 1014.8 |
| 20260505111016 | 59 | 0 | 0.0 | 0.0 | 0.00 | 0.00 | 0.00 | 94 | 1014.6 |
| 20260505110516 | 59 | 0 | 0.0 | 0.0 | 0.00 | 0.00 | 0.00 | 95 | 1014.5 |
| 20260505102016 | 58 | 0 | 0.0 | 0.0 | 0.00 | 0.00 | 0.00 | 94 | 1014.1 |
| 20260505101535 | 58 | 0 | 0.0 | 0.0 | 0.00 | 0.00 | 0.00 | 94 | 1014.1 |
| 20260505101016 | 58 | 0 | 0.0 | 0.0 | 0.00 | 0.00 | 0.00 | 94 | 1014.1 |
| 20260505100516 | 58 | 0 | 0.0 | 0.0 | 0.00 | 0.00 | 0.00 | 94 | 1014.1 |
| 20260505100036 | 58 | 0 | 0.0 | 0.0 | 0.00 | 0.00 | 0.00 | 94 | 1014.0 |
| 20260505095522 | 58 | 0 | 0.0 | 0.0 | 0.00 | 0.00 | 0.00 | 94 | 1014.0 |
| 20260505095017 | 58 | 0 | 0.0 | 0.9 | 0.00 | 0.00 | 0.00 | 94 | 1014.0 |
| 20260505094539 | 58 | 0 | 0.0 | 0.9 | 0.00 | 0.00 | 0.00 | 94 | 1014.0 |
| 20260505094016 | 58 | 0 | 0.0 | 0.0 | 0.00 | 0.00 | 0.00 | 93 | 1014.1 |
| 20260505093516 | 58 | 0 | 0.0 | 0.0 | 0.00 | 0.00 | 0.00 | 93 | 1014.2 |
| 20260505093037 | 58 | 0 | 0.0 | 0.0 | 0.00 | 0.00 | 0.00 | 93 | 1014.1 |
| 20260505092515 | 58 | 0 | 0.0 | 0.0 | 0.00 | 0.00 | 0.00 | 93 | 1014.0 |
| 20260505092016 | 58 | 0 | 0.0 | 0.0 | 0.00 | 0.00 | 0.00 | 93 | 1013.9 |
| 20260505091535 | 58 | 0 | 0.0 | 0.0 | 0.00 | 0.00 | 0.00 | 93 | 1013.9 |
| 20260505091016 | 58 | 0 | 0.0 | 0.0 | 0.00 | 0.00 | 0.00 | 93 | 1013.9 |
| 20260505090516 | 58 | 0 | 0.0 | 0.0 | 0.00 | 0.00 | 0.00 | 93 | 1013.8 |
| 20260505090037 | 58 | 0 | 0.0 | 0.0 | 0.00 | 0.00 | 0.00 | 93 | 1013.7 |
| 20260505085516 | 58 | 0 | 0.0 | 0.0 | 0.00 | 0.00 | 0.00 | 92 | 1013.7 |
| 20260505085016 | 58 | 0 | 0.0 | 0.0 | 0.00 | 0.00 | 0.00 | 92 | 1013.7 |
| 20260505084537 | 59 | 0 | 0.0 | 0.9 | 0.00 | 0.00 | 0.00 | 93 | 1013.7 |
| 20260505084015 | 58 | 0 | 0.0 | 1.7 | 0.00 | 0.00 | 0.00 | 92 | 1013.7 |
| 20260505083519 | 60 | 0 | 0.0 | 2.6 | 0.00 | 0.00 | 0.00 | 92 | 1013.8 |
| 20260505083039 | 60 | 68 | 0.9 | 2.6 | 0.00 | 0.00 | 0.00 | 93 | 1013.5 |
| 20260505082517 | 59 | 68 | 0.0 | 1.7 | 0.00 | 0.00 | 0.00 | 94 | 1013.6 |
| 20260505082016 | 57 | 0 | 0.0 | 0.9 | 0.00 | 0.00 | 0.00 | 92 | 1013.7 |
| 20260505081537 | 58 | 0 | 0.0 | 1.7 | 0.00 | 0.00 | 0.00 | 92 | 1013.7 |
| 20260505081024 | 58 | 0 | 0.0 | 1.7 | 0.00 | 0.00 | 0.00 | 92 | 1013.8 |
| 20260505080520 | 58 | 0 | 0.0 | 0.0 | 0.00 | 0.00 | 0.00 | 92 | 1013.6 |
| 20260505080038 | 59 | 0 | 0.0 | 0.0 | 0.00 | 0.00 | 0.00 | 93 | 1013.5 |
| 20260505075516 | 59 | 0 | 0.0 | 0.0 | 0.00 | 0.00 | 0.00 | 93 | 1013.4 |
| 20260505075016 | 58 | 0 | 0.0 | 0.0 | 0.00 | 0.00 | 0.00 | 93 | 1013.6 |
| 20260505074536 | 58 | 0 | 0.0 | 0.0 | 0.00 | 0.00 | 0.00 | 93 | 1013.8 |
| 20260505074016 | 58 | 0 | 0.0 | 0.0 | 0.00 | 0.00 | 0.00 | 93 | 1013.7 |
| 20260505073515 | 58 | 0 | 0.0 | 0.0 | 0.00 | 0.00 | 0.00 | 92 | 1013.8 |
| 20260505073035 | 58 | 0 | 0.0 | 0.0 | 0.00 | 0.00 | 0.00 | 92 | 1013.9 |
| 20260505072521 | 58 | 0 | 0.0 | 0.0 | 0.00 | 0.00 | 0.00 | 92 | 1013.8 |
| 20260505072020 | 59 | 0 | 0.0 | 0.9 | 0.00 | 0.00 | 0.00 | 92 | 1013.9 |
| 20260505071540 | 59 | 0 | 0.0 | 0.9 | 0.00 | 0.00 | 0.00 | 92 | 1013.9 |
| 20260505071020 | 58 | 0 | 0.0 | 0.0 | 0.00 | 0.00 | 0.00 | 92 | 1014.1 |
| 20260505070524 | 58 | 0 | 0.0 | 0.0 | 0.00 | 0.00 | 0.00 | 91 | 1014.2 |
| 20260505070038 | 58 | 0 | 0.0 | 0.0 | 0.00 | 0.00 | 0.00 | 91 | 1014.1 |
| 20260505065520 | 58 | 0 | 0.0 | 0.0 | 0.00 | 0.00 | 0.00 | 91 | 1014.1 |
| 20260505065021 | 58 | 0 | 0.0 | 0.0 | 0.00 | 0.00 | 0.00 | 92 | 1014.1 |
| 20260505064549 | 58 | 0 | 0.0 | 0.0 | 0.00 | 0.00 | 0.00 | 91 | 1014.0 |
| 20260505064020 | 59 | 0 | 0.0 | 0.9 | 0.00 | 0.00 | 0.00 | 91 | 1014.0 |
| 20260505063521 | 59 | 0 | 0.0 | 0.9 | 0.00 | 0.00 | 0.00 | 91 | 1014.1 |
| 20260505063041 | 59 | 0 | 0.0 | 0.0 | 0.00 | 0.00 | 0.00 | 91 | 1014.2 |
| 20260505062518 | 59 | 0 | 0.0 | 0.0 | 0.00 | 0.00 | 0.00 | 91 | 1014.4 |
| 20260505062021 | 60 | 0 | 0.0 | 0.0 | 0.00 | 0.00 | 0.00 | 91 | 1014.5 |
| 20260505061541 | 60 | 0 | 0.0 | 0.0 | 0.00 | 0.00 | 0.00 | 91 | 1014.5 |
| 20260505061020 | 59 | 0 | 0.0 | 0.0 | 0.00 | 0.00 | 0.00 | 90 | 1014.5 |
| 20260505060520 | 59 | 0 | 0.0 | 0.0 | 0.00 | 0.00 | 0.00 | 90 | 1014.4 |
| 20260505060044 | 60 | 0 | 0.0 | 0.0 | 0.00 | 0.00 | 0.00 | 90 | 1014.5 |
| 20260505055521 | 60 | 0 | 0.0 | 0.0 | 0.00 | 0.00 | 0.00 | 90 | 1014.6 |
| 20260505055022 | 60 | 0 | 0.0 | 0.0 | 0.00 | 0.00 | 0.00 | 89 | 1014.7 |
| 20260505054548 | 60 | 0 | 0.0 | 0.0 | 0.00 | 0.00 | 0.00 | 90 | 1014.8 |
| 20260505054017 | 60 | 0 | 0.0 | 0.0 | 0.00 | 0.00 | 0.00 | 89 | 1014.9 |
| 20260505053523 | 60 | 0 | 0.0 | 0.0 | 0.00 | 0.00 | 0.00 | 89 | 1014.9 |
| 20260505053035 | 60 | 0 | 0.0 | 0.0 | 0.00 | 0.00 | 0.00 | 88 | 1015.0 |
| 20260505052521 | 60 | 0 | 0.0 | 0.0 | 0.00 | 0.00 | 0.00 | 88 | 1015.0 |
| 20260505052021 | 61 | 0 | 0.0 | 0.0 | 0.00 | 0.00 | 0.00 | 87 | 1015.0 |
| 20260505051542 | 61 | 0 | 0.0 | 0.0 | 0.00 | 0.00 | 0.00 | 87 | 1015.1 |
| 20260505051021 | 61 | 0 | 0.0 | 0.0 | 0.00 | 0.00 | 0.00 | 87 | 1015.2 |
| 20260505050520 | 62 | 0 | 0.0 | 0.0 | 0.00 | 0.00 | 0.00 | 86 | 1015.2 |
| 20260505041537 | 64 | 0 | 0.0 | 0.0 | 0.00 | 0.00 | 0.00 | 82 | 1015.6 |
| 20260505041020 | 64 | 0 | 0.0 | 0.0 | 0.00 | 0.00 | 0.00 | 80 | 1015.6 |
| 20260505040520 | 65 | 0 | 0.0 | 0.9 | 0.00 | 0.00 | 0.00 | 79 | 1015.5 |
| 20260505040050 | 66 | 0 | 0.0 | 1.7 | 0.00 | 0.00 | 0.00 | 78 | 1015.6 |
| 20260505035521 | 67 | 0 | 0.0 | 1.7 | 0.00 | 0.00 | 0.00 | 76 | 1015.6 |
| 20260505035020 | 67 | 68 | 0.9 | 1.7 | 0.00 | 0.00 | 0.00 | 75 | 1015.4 |
| 20260505034552 | 68 | 0 | 0.0 | 2.6 | 0.00 | 0.00 | 0.00 | 74 | 1015.4 |
| 20260505034018 | 68 | 0 | 0.9 | 3.5 | 0.00 | 0.00 | 0.00 | 74 | 1015.5 |
| 20260505033518 | 68 | 75 | 0.9 | 3.5 | 0.00 | 0.00 | 0.00 | 73 | 1015.5 |
| 20260505033043 | 69 | 83 | 0.9 | 3.5 | 0.00 | 0.00 | 0.00 | 73 | 1015.5 |
| 20260505032517 | 69 | 71 | 1.7 | 3.5 | 0.00 | 0.00 | 0.00 | 73 | 1015.5 |
| 20260505032018 | 69 | 69 | 1.7 | 3.5 | 0.00 | 0.00 | 0.00 | 72 | 1015.5 |
| 20260505031538 | 69 | 75 | 1.7 | 5.2 | 0.00 | 0.00 | 0.00 | 72 | 1015.5 |
| 20260505031017 | 69 | 99 | 1.7 | 6.1 | 0.00 | 0.00 | 0.00 | 72 | 1015.6 |
| 20260505030517 | 69 | 43 | 3.5 | 6.1 | 0.00 | 0.00 | 0.00 | 71 | 1015.6 |
| 20260505030046 | 69 | 81 | 2.6 | 6.1 | 0.00 | 0.00 | 0.00 | 71 | 1015.7 |
| 20260505025521 | 70 | 61 | 3.5 | 6.1 | 0.00 | 0.00 | 0.00 | 71 | 1015.6 |
| 20260505025017 | 70 | 98 | 3.5 | 6.1 | 0.00 | 0.00 | 0.00 | 71 | 1015.6 |
| 20260505024536 | 70 | 86 | 2.6 | 7.8 | 0.00 | 0.00 | 0.00 | 71 | 1015.6 |
| 20260505024021 | 70 | 78 | 2.6 | 7.8 | 0.00 | 0.00 | 0.00 | 71 | 1015.4 |
| 20260505023521 | 70 | 82 | 3.5 | 8.7 | 0.00 | 0.00 | 0.00 | 71 | 1015.4 |
| 20260505023046 | 70 | 78 | 3.5 | 8.7 | 0.00 | 0.00 | 0.00 | 70 | 1015.4 |
| 20260505022521 | 70 | 138 | 4.3 | 7.8 | 0.00 | 0.00 | 0.00 | 70 | 1015.4 |
| 20260505022021 | 70 | 92 | 2.6 | 7.8 | 0.00 | 0.00 | 0.00 | 70 | 1015.4 |
| 20260505021541 | 70 | 121 | 3.5 | 7.8 | 0.00 | 0.00 | 0.00 | 70 | 1015.4 |
| 20260505021024 | 70 | 74 | 3.5 | 7.0 | 0.00 | 0.00 | 0.00 | 70 | 1015.3 |
| 20260505020521 | 70 | 80 | 3.5 | 7.0 | 0.00 | 0.00 | 0.00 | 70 | 1015.3 |
| 20260505020052 | 70 | 80 | 3.5 | 7.0 | 0.00 | 0.00 | 0.00 | 70 | 1015.2 |
| 20260505015522 | 70 | 82 | 2.6 | 6.1 | 0.00 | 0.00 | 0.00 | 69 | 1015.2 |
| 20260505015018 | 71 | 86 | 2.6 | 7.0 | 0.00 | 0.00 | 0.00 | 69 | 1015.1 |
| 20260505014542 | 71 | 68 | 3.5 | 7.0 | 0.00 | 0.00 | 0.00 | 69 | 1015.1 |
| 20260505014021 | 71 | 92 | 2.6 | 7.0 | 0.00 | 0.00 | 0.00 | 69 | 1015.0 |
| 20260505013525 | 71 | 92 | 2.6 | 7.8 | 0.00 | 0.00 | 0.00 | 68 | 1014.9 |
| 20260505013041 | 71 | 94 | 4.3 | 7.8 | 0.00 | 0.00 | 0.00 | 68 | 1014.9 |
| 20260505012522 | 71 | 98 | 3.5 | 7.0 | 0.00 | 0.00 | 0.00 | 68 | 1014.9 |
| 20260505012021 | 71 | 86 | 2.6 | 6.1 | 0.00 | 0.00 | 0.00 | 68 | 1014.7 |
| 20260505011536 | 71 | 65 | 2.6 | 5.2 | 0.00 | 0.00 | 0.00 | 67 | 1014.6 |
| 20260505011021 | 71 | 85 | 2.6 | 4.3 | 0.00 | 0.00 | 0.00 | 67 | 1014.6 |
| 20260505010521 | 72 | 82 | 1.7 | 5.2 | 0.00 | 0.00 | 0.00 | 67 | 1014.5 |
| 20260505010104 | 72 | 93 | 2.6 | 5.2 | 0.00 | 0.00 | 0.00 | 67 | 1014.4 |
| 20260505005521 | 72 | 74 | 2.6 | 7.0 | 0.00 | 0.00 | 0.00 | 66 | 1014.3 |
| 20260505005021 | 72 | 98 | 2.6 | 7.0 | 0.00 | 0.00 | 0.00 | 66 | 1014.3 |
| 20260505004556 | 72 | 107 | 2.6 | 7.0 | 0.00 | 0.00 | 0.00 | 65 | 1014.1 |
| 20260505004021 | 73 | 109 | 3.5 | 8.7 | 0.00 | 0.00 | 0.00 | 65 | 1014.2 |
| 20260505003525 | 73 | 83 | 3.5 | 8.7 | 0.00 | 0.00 | 0.00 | 65 | 1014.1 |
| 20260505003042 | 73 | 86 | 3.5 | 8.7 | 0.00 | 0.00 | 0.00 | 64 | 1014.2 |
| 20260505002521 | 73 | 105 | 2.6 | 5.2 | 0.00 | 0.00 | 0.00 | 63 | 1014.2 |
| 20260505002020 | 74 | 80 | 2.6 | 6.1 | 0.00 | 0.00 | 0.00 | 63 | 1014.2 |
| 20260505001541 | 74 | 79 | 2.6 | 6.1 | 0.00 | 0.00 | 0.00 | 62 | 1014.2 |
| 20260505001017 | 74 | 102 | 2.6 | 7.0 | 0.00 | 0.00 | 0.00 | 62 | 1014.2 |
| 20260505000519 | 74 | 90 | 2.6 | 7.0 | 0.00 | 0.00 | 0.00 | 61 | 1013.9 |
| 20260505000038 | 74 | 121 | 2.6 | 7.0 | 0.00 | 0.00 | 0.00 | 61 | 1013.9 |
| 20260504235517 | 75 | 123 | 2.6 | 8.7 | 0.00 | 0.00 | 0.00 | 61 | 1013.9 |
| 20260504235021 | 75 | 88 | 3.5 | 9.6 | 0.00 | 0.00 | 0.00 | 60 | 1013.8 |
| 20260504234537 | 75 | 84 | 4.3 | 10.4 | 0.00 | 0.00 | 0.00 | 59 | 1013.7 |
| 20260504234021 | 76 | 69 | 4.3 | 11.3 | 0.00 | 0.00 | 0.00 | 59 | 1013.8 |
| 20260504233521 | 76 | 82 | 7.0 | 11.3 | 0.00 | 0.00 | 0.00 | 58 | 1013.8 |
| 20260504233035 | 76 | 78 | 6.1 | 10.4 | 0.00 | 0.00 | 0.00 | 58 | 1013.7 |
| 20260504232521 | 77 | 104 | 5.2 | 11.3 | 0.00 | 0.00 | 0.00 | 56 | 1013.6 |
| 20260504232020 | 77 | 104 | 5.2 | 12.2 | 0.00 | 0.00 | 0.00 | 56 | 1013.6 |
| 20260504231558 | 78 | 116 | 7.8 | 12.2 | 0.00 | 0.00 | 0.00 | 54 | 1013.5 |
| 20260504231020 | 78 | 94 | 5.2 | 11.3 | 0.00 | 0.00 | 0.00 | 53 | 1013.6 |
| 20260504230524 | 78 | 87 | 6.1 | 12.2 | 0.00 | 0.00 | 0.00 | 53 | 1013.5 |
| 20260504230039 | 79 | 67 | 6.1 | 13.0 | 0.00 | 0.00 | 0.00 | 53 | 1013.6 |
| 20260504225521 | 79 | 58 | 7.0 | 13.0 | 0.00 | 0.00 | 0.00 | 53 | 1013.5 |
| 20260504225021 | 79 | 80 | 7.0 | 13.0 | 0.00 | 0.00 | 0.00 | 52 | 1013.6 |
| 20260504224541 | 80 | 116 | 5.2 | 11.3 | 0.00 | 0.00 | 0.00 | 51 | 1013.5 |